This demonstration page uses our WeatherBlox Daily Observations layout. Learn more.

36.17497, -115.13722

Hourly Observations for July 28, 2019

Temp ( °F °C ) Dew Point ( °F °C ) Humidity (%) Winds ( mph kmh ) Pressure ( in mb ) Visibility ( mi km ) Precip ( " mm )
12:53 am 00:53 Clear 93 33.9 46 7.8 20 20 NW 9 15 29.85 1011 10 16.09344 0 0
1:53 am 01:53 Clear 91 32.8 45 7.2 20 20 NW 8 13 29.85 1011 10 16.09344 0 0
2:53 am 02:53 Clear 90 32.2 45 7.2 21 21 Calm 29.85 1011 10 16.09344 0 0
3:53 am 03:53 Clear 92 33.3 44 6.7 19 19 N 7 11 29.85 1011 10 16.09344 0 0
4:53 am 04:53 Clear 90 32.2 45 7.2 21 21 W 6 9 29.88 1012 10 16.09344 0 0
5:53 am 05:53 Sunny 88 31.1 47 8.3 24 24 NW 10 17 29.88 1012 10 16.09344 0 0
6:53 am 06:53 Sunny 91 32.8 46 7.8 21 21 NNW 6 9 29.91 1013 10 16.09344 0 0
7:53 am 07:53 Sunny 93 33.9 47 8.3 21 21 NNE 5 7 29.91 1013 10 16.09344 0 0
8:53 am 08:53 Sunny 97 36.1 48 8.9 19 19 NNE 7 11 29.91 1013 10 16.09344 0 0
9:53 am 09:53 Sunny 99 37.2 50 10 19 19 Calm 29.91 1013 10 16.09344 0 0
10:53 am 10:53 Sunny 101 38.3 50 10 18 18 VRB 3 6 29.91 1013 10 16.09344 0 0
11:53 am 11:53 Sunny 104 40 50 10 16 16 E 10 17 29.88 1012 10 16.09344 0 0
12:53 pm 12:53 Sunny 105 40.6 48 8.9 15 15 undefined N/A 29.85 1011 10 16.09344 0 0
1:53 pm 13:53 Sunny 107 41.7 45 7.2 12 12 VRB 7 11 29.85 1011 10 16.09344 0 0
2:53 pm 14:53 Sunny 107 41.7 44 6.7 12 12 ENE 3 6 29.83 1010 10 16.09344 0 0
3:53 pm 15:53 Sunny 108 42.2 44 6.7 12 12 undefined N/A 29.8 1009 10 16.09344 0 0
4:53 pm 16:53 Sunny 108 42.2 45 7.2 12 12 SSE 12 19 29.77 1008 10 16.09344 0 0
5:53 pm 17:53 Sunny 107 41.7 45 7.2 12 12 SSE 5 7 29.74 1007 10 16.09344 0 0
6:53 pm 18:53 Sunny 107 41.7 44 6.7 12 12 S 8 13 29.74 1007 10 16.09344 0 0
7:53 pm 19:53 Clear 105 40.6 45 7.2 13 13 SSE 9 15 29.74 1007 10 16.09344 0 0
8:53 pm 20:53 Clear 104 40 46 7.8 14 14 SW 5 7 29.77 1008 10 16.09344 0 0
9:53 pm 21:53 Clear 102 38.9 45 7.2 14 14 SSW 5 7 29.77 1008 10 16.09344 0 0
10:53 pm 22:53 Clear 99 37.2 38 3.3 12 12 SW 7 11 29.77 1008 10 16.09344 0 0
11:53 pm 23:53 Clear 97 36.1 37 2.8 12 12 WSW 6 9 29.77 1008 10 16.09344 0 0

Powered by AerisWeather